Theta_e
310 311 312 313 313 313 314 314 315 315 315 316 317 317 319 321 322 315 307 310 311 319 319 305 303 307 309 306 307 303 294 291 294 295 299 303 305 307 310 310 313 315 314 319 327
308 309 309 310 310 311 312 313 313 314 314 315 316 315 317 320 313 307 314 318 318 322 303 299 298 304 302 302 303 300 292 293 297 298 299 303 305 306 308 309 312 315 320 324 324
308 308 308 307 309 310 311 313 313 313 313 313 315 315 315 316 302 300 316 318 319 321 303 302 303 302 298 301 300 298 293 296 298 299 301 302 303 307 307 306 309 312 316 320 322
309 309 309 309 308 308 310 312 313 313 313 313 314 315 315 310 288 300 321 321 321 315 302 303 304 299 295 296 300 295 298 296 298 301 301 300 305 305 307 309 312 315 320 320 320
309 309 309 309 309 308 308 311 312 312 312 313 313 314 310 301 297 306 322 323 316 305 299 299 300 299 294 295 298 296 297 299 300 300 299 301 300 303 304 309 314 319 320 320 322
310 310 310 310 309 309 309 308 311 312 312 312 313 314 304 293 308 310 313 312 309 304 299 299 299 302 298 296 296 297 298 298 299 299 299 298 296 300 303 310 315 319 319 320 321
310 310 310 310 309 309 309 309 308 311 312 312 313 309 302 297 312 313 311 309 308 304 299 301 301 300 299 295 298 296 294 296 297 299 298 299 295 295 301 312 313 317 318 319 320
310 310 310 310 310 309 309 310 309 307 311 312 312 307 294 309 314 310 307 305 307 305 303 304 304 302 298 300 298 294 294 289 294 298 299 297 289 294 299 309 310 314 316 318 320
310 310 310 310 310 309 309 309 309 309 311 311 303 302 293 310 308 310 307 304 305 305 307 307 307 299 298 293 290 291 285 286 291 297 297 296 291 297 297 303 305 311 313 315 317
309 309 309 309 309 309 308 309 309 307 305 307 305 295 298 298 306 309 310 305 301 302 303 302 299 293 291 288 283 284 283 286 287 292 294 292 293 296 296 295 299 303 308 312 314
309 309 309 309 309 308 303 295 291 290 294 290 293 295 297 303 307 305 308 304 302 296 291 297 290 285 288 289 288 289 288 286 289 292 293 291 291 295 297 296 295 295 295 297 306
309 309 309 308 309 307 298 291 295 297 288 294 294 294 301 302 294 303 308 299 295 287 294 292 284 290 292 293 290 288 287 286 288 291 291 288 289 291 293 296 297 298 296 296 296
309 309 308 308 308 296 293 292 299 302 288 289 293 296 298 300 294 296 303 299 294 289 290 286 286 292 292 291 289 288 284 285 287 290 290 287 284 288 291 292 294 297 299 299 299
308 308 308 307 295 292 288 296 300 301 280 281 288 295 297 298 292 301 304 298 294 288 288 286 290 289 289 289 290 285 289 288 287 286 282 285 278 283 286 287 289 292 294 297 299
307 306 307 304 293 288 292 297 300 294 262 283 290 300 298 292 293 293 304 297 291 290 288 285 287 286 284 286 291 287 291 290 288 284 284 282 280 282 285 285 288 290 291 294 296
306 306 306 296 292 293 296 297 290 269 261 279 291 288 289 292 292 296 293 297 298 293 292 289 290 290 288 290 291 291 288 287 286 284 274 279 280 279 284 286 288 290 290 291 291
307 307 301 297 290 295 295 286 268 263 276 277 282 285 285 288 289 290 288 285 285 283 284 287 287 288 290 287 290 287 285 278 274 271 273 278 279 282 286 289 288 289 289 289 291
307 304 299 297 295 295 286 274 261 260 268 284 283 284 282 286 288 289 288 285 286 286 286 283 280 286 288 287 285 284 283 278 270 271 274 279 278 281 287 288 289 289 290 290 290
302 292 291 294 296 293 278 263 263 264 281 281 280 273 278 285 286 286 286 286 288 288 283 283 282 288 288 290 290 285 282 285 277 268 271 276 279 283 285 286 287 288 289 290 290
289 287 288 294 294 286 272 270 265 277 284 284 269 279 269 274 278 281 284 287 288 292 291 287 281 285 287 291 291 287 288 280 279 267 266 272 274 277 281 284 284 286 288 290 290
286 279 288 294 289 277 265 262 271 281 285 280 277 277 277 276 275 276 282 286 289 290 292 290 284 279 285 283 283 285 284 284 283 278 272 269 273 279 282 282 283 284 286 289 290
282 272 290 289 274 275 268 266 283 281 283 280 283 282 282 283 279 279 281 285 288 291 287 289 285 278 280 285 287 288 286 286 280 276 275 275 274 281 281 282 283 283 285 288 290
282 279 292 291 266 263 266 267 277 278 279 282 281 284 285 283 277 282 283 288 288 289 287 290 284 272 275 282 285 284 285 287 286 282 276 274 277 283 281 282 282 283 285 288 291
277 271 279 287 281 269 263 264 270 280 281 284 282 283 282 279 283 280 282 288 289 287 289 290 285 276 274 278 282 281 284 286 285 280 280 279 279 280 280 281 282 282 284 286 290
275 270 272 266 277 279 277 270 268 269 278 282 279 280 279 275 277 278 279 283 287 289 287 285 281 283 283 284 284 283 284 284 284 285 281 283 279 283 283 283 284 284 285 286 289
281 275 281 278 277 278 279 269 274 275 277 273 276 279 280 276 279 276 281 282 280 285 285 287 280 277 277 284 285 282 284 285 285 286 286 284 283 286 285 284 284 287 288 288 287
288 288 283 277 280 277 275 273 275 279 280 281 280 279 279 280 284 285 286 285 284 281 279 282 276 275 273 279 280 278 283 283 285 287 286 282 287 287 287 287 287 286 288 289 289
Wind_Speed
15 16 16 17 17 18 18 20 19 19 19 20 18 13 23 20 15 6 17 8 12 21 10 2 1 5 2 5 3 3 3 4 5 6 5 3 4 1 2 6 1 4 3 1 18
14 15 16 17 18 19 19 19 19 19 20 21 20 18 22 21 8 18 11 17 20 15 4 8 6 9 4 3 2 5 4 9 6 5 3 1 5 7 5 4 2 2 4 13 18
14 15 16 17 18 19 20 20 19 19 19 20 21 16 20 28 1 9 21 29 22 15 6 5 5 7 6 6 7 5 6 5 4 5 2 2 2 5 6 3 7 10 10 15 16
13 15 16 17 18 20 21 21 20 19 18 20 19 16 14 11 9 2 4 24 25 9 6 5 5 8 7 9 4 6 7 5 4 5 4 2 1 3 5 4 1 7 15 16 19
14 15 16 17 18 20 21 22 20 20 19 21 19 16 8 9 9 7 5 2 17 9 10 8 6 7 7 7 8 6 7 7 5 4 4 2 3 4 5 7 4 10 14 16 16
14 16 17 18 18 20 21 22 22 20 18 19 17 13 4 18 6 16 2 2 4 13 7 7 7 5 5 6 12 9 5 6 6 5 4 4 2 2 2 1 5 10 14 14 16
15 15 16 18 19 21 21 22 22 22 20 19 18 6 7 11 3 12 5 3 3 4 9 6 5 5 6 2 4 7 6 3 5 7 5 6 5 6 3 2 4 7 7 8 11
15 15 16 17 19 21 23 24 25 23 21 17 14 5 6 2 4 8 6 4 3 5 3 10 7 3 4 1 4 6 5 6 3 9 3 9 5 7 6 6 8 6 5 6 9
15 15 16 17 17 19 23 27 27 19 15 16 2 4 5 8 5 6 7 4 3 1 1 5 7 4 4 6 3 5 7 6 3 4 5 4 4 3 1 6 8 7 7 6 5
14 15 17 18 17 18 23 28 18 5 7 3 3 1 2 5 7 4 5 3 3 5 4 4 4 4 2 5 13 6 5 2 5 5 2 5 10 3 1 4 7 4 5 6 8
14 15 16 17 17 17 12 6 7 5 6 5 6 6 4 3 8 7 2 4 3 4 5 2 5 13 9 4 3 5 5 6 3 4 5 8 6 11 6 5 5 7 7 8 10
14 14 15 17 15 13 4 5 5 7 11 10 11 9 6 3 6 9 3 3 4 6 5 3 8 5 7 3 7 5 2 4 2 2 3 4 7 8 7 7 9 12 9 9 6
13 13 15 16 11 5 2 2 10 5 5 8 3 2 2 5 3 4 11 2 2 6 6 6 2 9 8 5 5 4 4 2 3 3 3 2 7 8 5 5 6 8 10 9 13
12 13 15 15 4 4 4 7 7 4 3 7 5 2 2 4 4 1 9 0 5 9 6 3 3 11 9 9 9 10 7 4 5 2 4 1 6 7 6 9 6 8 9 13 12
11 12 9 8 3 3 6 8 6 2 7 11 6 6 0 1 2 8 2 1 6 5 7 4 7 10 5 6 7 5 8 6 3 3 2 1 1 7 0 7 8 9 12 13 12
11 10 7 4 2 4 7 6 4 9 5 8 6 8 7 1 1 3 8 9 4 4 5 3 2 6 8 4 6 9 9 7 4 2 2 4 5 5 6 6 4 5 3 5 5
12 8 3 1 4 7 6 5 9 8 6 10 7 10 9 3 3 6 5 2 2 4 5 2 2 3 4 9 4 2 7 3 2 1 7 4 4 6 7 4 5 5 5 3 5
7 6 4 2 5 5 5 8 10 4 5 4 5 11 6 7 3 3 5 3 2 3 3 5 4 5 4 5 10 6 5 6 8 5 4 1 9 7 7 5 7 7 7 6 6
5 3 3 5 6 3 7 7 8 7 4 7 10 6 6 4 5 5 3 3 6 11 1 3 1 2 2 2 7 4 4 4 7 3 4 5 8 8 6 11 3 5 6 6 4
3 2 3 8 6 5 7 2 2 3 6 3 2 3 3 6 3 4 3 1 3 6 6 1 2 2 2 6 6 2 8 3 2 4 4 5 5 6 4 5 6 2 2 4 4
4 4 4 6 4 7 4 6 4 5 4 2 2 6 5 3 2 3 3 5 9 3 7 2 1 5 3 6 9 2 2 3 2 5 5 1 7 8 8 3 7 7 4 4 5
3 3 4 5 5 1 1 5 4 4 2 3 2 5 4 3 3 3 6 6 12 7 4 2 1 4 7 3 2 5 10 14 4 5 2 1 7 2 5 5 5 7 5 0 3
2 1 3 4 3 3 5 4 2 2 1 3 2 2 3 6 4 2 2 1 7 10 3 3 3 1 6 5 3 8 9 15 14 3 7 5 7 1 1 6 6 1 2 2 3
4 2 3 2 3 6 1 3 5 3 3 3 4 3 3 3 3 4 4 0 4 3 7 8 3 5 8 2 3 6 14 12 18 7 12 13 4 2 4 4 4 2 1 3 5
3 4 4 1 2 2 1 2 2 3 3 2 3 1 1 3 5 3 4 6 2 2 4 4 2 1 8 8 4 2 11 15 19 21 12 23 9 10 6 3 4 1 3 2 5
5 4 2 3 2 3 3 4 4 3 3 5 3 1 1 2 3 9 6 2 3 3 2 1 3 2 5 6 10 8 7 16 14 15 14 9 12 5 4 5 6 7 4 2 3
1 1 4 3 3 3 5 6 5 4 3 5 4 1 3 7 4 8 7 7 9 2 2 2 1 2 3 2 7 3 8 7 10 11 13 11 23 3 7 7 5 8 6 5 4
Wind_Direction
347 346 345 341 334 325 319 313 309 303 306 309 303 308 320 304 259 231 233 211 217 258 278 305 8 124 314 245 132 133 83 183 214 170 244 141 189 157 113 119 213 164 137 329 136
352 351 348 342 336 332 324 319 307 305 305 302 304 306 315 307 236 242 229 219 238 255 208 173 176 149 176 226 167 144 168 207 196 199 241 206 194 169 147 133 199 153 50 129 146
345 347 348 349 340 335 329 322 313 308 303 302 297 292 297 304 230 256 227 223 231 227 240 188 151 172 178 175 183 159 200 215 225 207 226 296 223 174 137 213 200 194 156 156 157
331 335 339 343 343 338 334 330 320 309 299 306 303 288 295 306 196 285 257 212 203 180 182 171 149 161 180 178 177 174 229 199 207 171 146 201 171 219 212 205 46 184 154 162 171
319 323 327 331 335 338 335 331 325 309 294 308 309 298 343 290 234 313 351 207 172 157 181 173 163 141 184 173 130 200 177 194 205 147 158 128 230 235 256 269 29 132 154 174 181
314 315 317 320 326 328 330 329 326 318 303 305 312 311 210 268 332 342 213 71 171 166 187 148 188 171 160 198 187 191 191 198 173 165 165 169 207 155 311 215 121 158 178 181 184
328 319 313 316 318 319 323 324 321 317 303 304 303 340 182 253 309 324 280 206 190 198 182 175 161 146 126 145 198 142 148 297 188 152 196 140 266 225 217 152 211 195 188 186 192
327 325 319 313 317 316 320 320 314 309 299 294 302 18 315 268 250 268 273 280 198 241 206 147 137 112 126 248 58 124 117 185 231 143 200 135 239 255 203 164 222 213 210 192 196
342 333 329 328 322 319 319 316 308 304 291 290 284 155 241 292 229 205 258 231 179 191 96 142 119 145 104 144 103 231 194 183 223 217 139 157 243 243 343 200 225 212 209 212 206
339 332 331 333 328 327 325 315 307 333 308 236 78 152 147 326 335 132 316 229 194 134 86 81 99 118 82 161 201 168 125 133 176 208 157 145 243 257 160 208 248 268 230 215 221
333 330 335 335 332 336 339 350 12 342 54 285 300 308 288 345 286 144 287 301 139 103 155 137 130 191 168 176 117 149 154 146 216 204 135 202 227 235 228 230 245 259 247 238 235
334 332 334 332 331 341 14 22 340 293 307 266 258 265 298 56 322 155 169 239 156 146 126 117 213 169 153 142 93 66 158 173 94 110 151 139 254 248 243 236 212 225 236 240 237
334 340 337 332 334 33 343 292 308 321 299 307 246 252 174 192 211 296 183 90 147 142 188 161 215 152 158 149 151 112 128 210 123 123 53 67 298 275 241 240 207 233 228 228 230
351 351 343 335 25 321 323 332 316 319 351 292 357 36 125 209 199 295 186 4 190 179 146 189 132 159 159 186 167 203 154 97 59 124 211 167 265 263 258 255 246 241 226 237 230
341 348 353 32 273 6 286 325 302 41 42 312 352 302 190 313 7 25 1 175 214 143 137 195 146 149 152 194 148 200 158 165 90 70 6 326 316 262 214 256 253 247 233 235 236
334 338 350 0 355 272 317 310 46 39 299 335 352 348 353 209 77 76 26 357 314 91 48 61 326 161 175 133 138 141 90 62 68 81 317 213 181 246 202 212 228 255 262 232 242
320 328 76 58 304 324 320 30 36 91 319 336 334 331 327 267 194 160 136 326 297 144 146 110 314 296 138 102 52 86 129 94 49 40 232 313 189 269 260 240 228 274 259 310 313
55 82 11 86 315 336 42 44 66 241 260 307 295 314 324 343 356 224 134 215 176 312 120 158 170 195 197 162 170 177 156 151 178 190 207 32 234 239 235 286 263 262 271 271 272
35 6 21 333 339 22 63 50 195 207 288 318 326 42 342 12 321 349 222 233 185 166 296 139 113 308 56 126 134 184 218 125 100 32 64 223 294 283 274 278 262 261 244 247 213
63 40 335 322 351 54 70 244 202 233 330 336 340 350 332 315 32 37 246 288 219 169 130 289 115 14 131 84 347 136 146 97 26 133 243 270 280 248 298 245 323 311 286 258 170
55 43 279 340 46 45 121 222 282 251 324 337 305 304 277 292 301 302 331 354 5 314 178 127 26 308 116 222 164 142 202 143 106 159 193 214 255 220 232 255 286 284 318 277 171
93 34 305 28 48 67 99 191 287 293 314 328 285 261 278 338 304 310 23 347 345 299 174 153 135 165 197 336 340 213 192 196 197 214 240 172 265 220 222 294 268 274 292 223 119
83 269 334 79 101 319 309 297 247 281 318 341 312 349 306 309 331 338 289 136 27 353 344 171 193 59 353 349 327 208 203 196 188 103 207 150 250 163 7 3 343 334 128 89 89
87 25 334 46 138 129 87 294 312 277 263 255 278 270 308 325 357 306 313 55 242 116 349 340 192 180 219 215 149 207 205 203 188 196 218 233 233 47 68 53 11 333 251 119 122
53 243 186 227 259 224 159 166 317 325 302 270 333 44 29 316 317 314 343 328 345 115 52 19 300 241 267 257 247 213 218 206 199 214 199 239 208 235 201 164 157 334 301 125 129
138 133 175 137 170 177 217 242 223 272 185 287 165 348 323 245 288 310 317 286 284 2 65 150 297 331 340 344 231 244 236 212 228 241 244 234 273 210 279 188 189 191 226 194 186
157 73 118 226 187 178 223 217 217 174 263 228 191 119 270 269 251 255 255 251 264 302 265 234 308 333 253 38 345 282 220 222 218 208 228 234 244 144 225 244 214 193 232 226 241